Flag for Germany Weather past 2 weeks in Melle, Lower Saxony, Germany

Now
39 °F

Broken clouds.


Feels Like: 32 °F
Forecast: 27 / 34 °F
Wind: 12 mph from Southwest

Location: Muenster / Osnabrueck

Current Time: Jan 29, 2015 at 3:31:57 PM

Latest Report: Jan 29, 2015 at 2:50 PM


Visibility: N/A

Pressure: 28.97 "Hg

Humidity: 81%

Dew point: 34 °F

Location of MelleLocation

Historic Weather in Melle — Graph

°F

Melle temperature yesterday

Maximum temperature yesterday: 45 °F (at 2:20 PM)
Minimum temperature yesterday: 36 °F (at 9:20 PM)
Average temperature yesterday: 40 °F

Past Weeks' High & Low Weather Summary

 TemperatureHumidityPressure
High48 °F (Jan 15, 11:20 AM)100% (Jan 17, 2:50 AM)30.36 "Hg (Jan 17, 2:50 AM)
Low23 °F (Jan 21, 1:50 AM)65% (Jan 21, 1:50 PM)29.00 "Hg (Jan 29, 2:20 PM)
Average36 °F89%29.92 "Hg
* Reported Jan 14 2:20 PM — Jan 29 2:20 PM, Melle, Weather by CustomWeather, © 2014

Note: Actual official high and low records may vary slightly from our data, if they occured in-between our weather recording intervals... More about our weather records

Advertising

Melle weather history for previous 24 hours

 ConditionsComfort  
Time TempWeatherWind HumidityBarometerVisibility
2:20 PM
Jan 29
39 °FPartly sunny.14 mph75%29.00 "HgN/A
1:50 PM39 °FPartly sunny.15 mph75%29.03 "HgN/A
1:20 PM37 °FMostly cloudy.12 mph87%29.06 "HgN/A
12:50 PM37 °FBroken clouds.10 mph87%29.06 "HgN/A
12:20 PM37 °FBroken clouds.10 mph87%29.09 "HgN/A
11:50 AM36 °FScattered clouds.14 mph93%29.12 "HgN/A
11:20 AM34 °FBroken clouds.12 mph100%29.12 "HgN/A
10:50 AM34 °FSnow showers. Fog.15 mph93%29.15 "Hg1 mi
10:20 AM34 °FSnow flurries. Scattered clouds.14 mph93%29.15 "HgN/A
9:50 AM34 °FSnow flurries. Partly sunny.12 mph93%29.18 "HgN/A
9:20 AM34 °FSnow flurries. Broken clouds.14 mph93%29.18 "HgN/A
8:50 AM34 °FSnow flurries. Broken clouds.14 mph93%29.18 "Hg6 mi
8:20 AM34 °FSnow flurries. Fog.13 mph100%29.21 "Hg4 mi
7:50 AM34 °FPartly cloudy.14 mph93%29.21 "Hg6 mi
7:20 AM34 °FSnow flurries. Partly cloudy.16 mph93%29.21 "Hg4 mi
6:50 AM36 °FSnow flurries. Partly cloudy.15 mph81%29.24 "Hg4 mi
6:20 AM34 °FSnow flurries. Passing clouds.14 mph87%29.24 "Hg4 mi
5:50 AM36 °FSnow flurries. Passing clouds.17 mph81%29.27 "Hg2 mi
5:20 AM36 °FClear.16 mph81%29.27 "Hg10 mi
4:20 AM36 °FPassing clouds.14 mph81%29.30 "HgN/A
3:50 AM36 °FPassing clouds.13 mph81%29.30 "HgN/A
3:20 AM36 °FPassing clouds.13 mph81%29.33 "HgN/A
2:50 AM36 °FPassing clouds.14 mph81%29.33 "HgN/A
2:20 AM37 °FPassing clouds.14 mph75%29.33 "HgN/A
1:50 AM37 °FClear.17 mph75%29.33 "Hg10 mi
1:20 AM37 °FPassing clouds.17 mph75%29.33 "HgN/A
12:50 AM37 °FPartly cloudy.18 mph75%29.33 "HgN/A
12:20 AM37 °FPassing clouds.20 mph81%29.36 "HgN/A
11:50 PM
Jan 28
37 °FClear.20 mph81%29.36 "Hg10 mi
11:20 PM37 °FPassing clouds.15 mph81%29.36 "HgN/A
10:50 PM37 °FPartly cloudy.17 mph81%29.36 "HgN/A
10:20 PM37 °FPassing clouds.16 mph87%29.36 "HgN/A
9:50 PM37 °FPassing clouds.14 mph87%29.36 "HgN/A
9:20 PM36 °FSprinkles. Passing clouds.21 mph93%29.39 "HgN/A
8:50 PM37 °FPassing clouds.20 mph87%29.36 "HgN/A
8:20 PM39 °FPartly cloudy.16 mph81%29.36 "HgN/A
7:50 PM37 °FPassing clouds.12 mph93%29.36 "HgN/A
7:20 PM37 °FPartly cloudy.13 mph87%29.36 "HgN/A
6:50 PM37 °FLight rain. Passing clouds.24 mph93%29.36 "HgN/A
6:20 PM41 °FRain. Passing clouds.17 mph100%29.33 "Hg3 mi
5:50 PM41 °FLight rain. Partly cloudy.17 mph93%29.30 "Hg6 mi
5:20 PM41 °FLight rain. Passing clouds.21 mph93%29.33 "Hg5 mi
4:50 PM41 °FLight rain. Mostly cloudy.20 mph93%29.36 "Hg4 mi
4:20 PM41 °FLight rain. Broken clouds.16 mph93%29.39 "Hg6 mi
3:50 PM41 °FLight rain. Partly sunny.17 mph87%29.42 "Hg4 mi
3:20 PM43 °FLight rain. Partly sunny.26 mph81%29.45 "HgN/A
Weather by CustomWeather, © 2014

See weather overviewHow to use our weather pages